Time,TemperatureF,DewpointF,PressureIn,WindDirection,WindDirectionDegrees,WindSpeedMPH,WindSpeedGustMPH,Humidity,HourlyPrecipIn,Conditions,Clouds,dailyrainin,SoftwareType,DateUTC
2013-03-02 00:01:00,16.0,9.0,30.29,ENE,76,1.0,3.0,75,0.00,,,0.00,,2013-03-02 06:01:00,
2013-03-02 00:11:00,16.0,9.0,30.29,ENE,76,1.0,3.0,75,0.00,,,0.00,,2013-03-02 06:11:00,
2013-03-02 00:21:00,16.0,9.0,30.29,ENE,76,0.0,2.0,75,0.00,,,0.00,,2013-03-02 06:21:00,
2013-03-02 00:31:00,15.0,9.0,30.28,NE,40,1.0,4.0,76,0.00,,,0.00,,2013-03-02 06:31:00,
2013-03-02 00:42:00,15.0,9.0,30.28,NE,40,1.0,4.0,76,0.00,,,0.00,,2013-03-02 06:42:00,
2013-03-02 00:51:00,15.0,9.0,30.29,NNE,30,1.0,8.0,76,0.00,,,0.00,,2013-03-02 06:51:00,
2013-03-02 01:01:00,15.0,9.0,30.28,NE,53,3.0,9.0,75,0.00,,,0.00,,2013-03-02 07:01:00,
2013-03-02 01:11:00,15.0,9.0,30.28,NE,53,3.0,9.0,75,0.00,,,0.00,,2013-03-02 07:11:00,
2013-03-02 01:21:00,14.0,8.0,30.28,NE,38,3.0,4.0,76,0.00,,,0.00,,2013-03-02 07:21:00,
2013-03-02 01:32:00,14.0,8.0,30.28,NE,53,1.0,6.0,77,0.00,,,0.00,,2013-03-02 07:32:00,
2013-03-02 01:42:00,14.0,8.0,30.28,NE,53,1.0,6.0,77,0.00,,,0.00,,2013-03-02 07:42:00,
2013-03-02 01:52:00,14.0,8.0,30.29,North,9,1.0,7.0,77,0.00,,,0.00,,2013-03-02 07:52:00,
2013-03-02 02:01:00,14.0,8.0,30.29,NE,55,2.0,4.0,77,0.00,,,0.00,,2013-03-02 08:01:00,
2013-03-02 02:11:00,14.0,8.0,30.29,NE,55,2.0,4.0,77,0.00,,,0.00,,2013-03-02 08:11:00,
2013-03-02 02:21:00,13.0,7.0,30.29,WNW,298,0.0,4.0,77,0.00,,,0.00,,2013-03-02 08:21:00,
2013-03-02 02:32:00,13.0,7.0,30.29,WNW,298,0.0,0.0,78,0.00,,,0.00,,2013-03-02 08:32:00,
2013-03-02 02:42:00,13.0,7.0,30.29,WNW,298,0.0,0.0,78,0.00,,,0.00,,2013-03-02 08:42:00,
2013-03-02 02:52:00,12.0,7.0,30.29,WNW,298,1.0,2.0,79,0.00,,,0.00,,2013-03-02 08:52:00,
2013-03-02 03:01:00,12.0,7.0,30.29,WNW,298,0.0,1.0,79,0.00,,,0.00,,2013-03-02 09:01:00,
2013-03-02 03:11:00,11.0,6.0,30.29,WNW,298,0.0,1.0,79,0.00,,,0.00,,2013-03-02 09:11:00,
2013-03-02 03:21:00,11.0,6.0,30.29,WNW,298,0.0,1.0,79,0.00,,,0.00,,2013-03-02 09:21:00,
2013-03-02 03:32:00,10.0,5.0,30.29,WNW,298,2.0,2.0,81,0.00,,,0.00,,2013-03-02 09:32:00,
2013-03-02 03:42:00,10.0,5.0,30.29,WNW,298,2.0,2.0,81,0.00,,,0.00,,2013-03-02 09:42:00,
2013-03-02 03:51:00,9.0,5.0,30.28,WNW,298,0.0,2.0,82,0.00,,,0.00,,2013-03-02 09:51:00,
2013-03-02 04:01:00,8.0,4.0,30.29,WNW,298,0.0,2.0,83,0.00,,,0.00,,2013-03-02 10:01:00,
2013-03-02 04:15:00,8.0,4.0,30.29,WNW,298,0.0,2.0,83,0.00,,,0.00,,2013-03-02 10:15:00,
2013-03-02 04:21:00,8.0,4.0,30.29,WNW,298,0.0,1.0,84,0.00,,,0.00,,2013-03-02 10:21:00,
2013-03-02 04:31:00,9.0,5.0,30.29,WNW,298,0.0,0.0,84,0.00,,,0.00,,2013-03-02 10:31:00,
2013-03-02 04:42:00,9.0,5.0,30.29,WNW,298,0.0,0.0,84,0.00,,,0.00,,2013-03-02 10:42:00,
2013-03-02 04:51:00,9.0,5.0,30.28,WNW,298,0.0,1.0,84,0.00,,,0.00,,2013-03-02 10:51:00,
2013-03-02 05:01:00,9.0,5.0,30.29,WNW,298,0.0,1.0,83,0.00,,,0.00,,2013-03-02 11:01:00,
2013-03-02 05:11:00,9.0,5.0,30.29,WNW,298,0.0,1.0,83,0.00,,,0.00,,2013-03-02 11:11:00,
2013-03-02 05:21:00,9.0,5.0,30.29,WNW,298,0.0,0.0,84,0.00,,,0.00,,2013-03-02 11:21:00,
2013-03-02 05:32:00,10.0,6.0,30.29,WNW,298,0.0,2.0,83,0.00,,,0.00,,2013-03-02 11:32:00,
2013-03-02 05:42:00,10.0,6.0,30.29,WNW,298,0.0,2.0,83,0.00,,,0.00,,2013-03-02 11:42:00,
2013-03-02 05:52:00,10.0,6.0,30.29,WNW,298,0.0,2.0,82,0.00,,,0.00,,2013-03-02 11:52:00,
2013-03-02 06:02:00,10.0,6.0,30.29,WNW,298,1.0,3.0,83,0.00,,,0.00,,2013-03-02 12:02:00,
2013-03-02 06:11:00,10.0,6.0,30.29,WNW,298,1.0,3.0,83,0.00,,,0.00,,2013-03-02 12:11:00,
2013-03-02 06:21:00,10.0,6.0,30.29,WNW,298,0.0,3.0,82,0.00,,,0.00,,2013-03-02 12:21:00,
2013-03-02 06:33:00,10.0,6.0,30.30,NW,305,2.0,6.0,82,0.00,,,0.00,,2013-03-02 12:33:00,
2013-03-02 06:43:00,10.0,6.0,30.30,NW,305,2.0,6.0,82,0.00,,,0.00,,2013-03-02 12:43:00,
2013-03-02 06:53:00,10.0,6.0,30.30,NW,309,4.0,8.0,83,0.00,,,0.00,,2013-03-02 12:53:00,
2013-03-02 07:01:00,10.0,6.0,30.30,NNW,337,4.0,9.0,82,0.00,,,0.00,,2013-03-02 13:01:00,
2013-03-02 07:11:00,10.0,6.0,30.30,NNW,337,4.0,9.0,82,0.00,,,0.00,,2013-03-02 13:11:00,
2013-03-02 07:21:00,11.0,6.0,30.30,NNW,331,4.0,10.0,81,0.00,,,0.00,,2013-03-02 13:21:00,
2013-03-02 07:32:00,12.0,7.0,30.30,NW,325,4.0,7.0,81,0.00,,,0.00,,2013-03-02 13:32:00,
2013-03-02 07:42:00,12.0,7.0,30.30,NW,325,4.0,7.0,81,0.00,,,0.00,,2013-03-02 13:42:00,
2013-03-02 07:52:00,13.0,8.0,30.27,North,350,5.0,7.0,80,0.00,,,0.00,,2013-03-02 13:52:00,
2013-03-02 08:01:00,13.0,8.0,30.27,NW,320,5.0,10.0,79,0.00,,,0.00,,2013-03-02 14:01:00,
2013-03-02 08:11:00,13.0,8.0,30.27,NW,320,5.0,10.0,79,0.00,,,0.00,,2013-03-02 14:11:00,
2013-03-02 08:21:00,14.0,8.0,30.27,NW,318,3.0,8.0,78,0.00,,,0.00,,2013-03-02 14:21:00,
2013-03-02 08:32:00,14.0,8.0,30.27,NNE,15,4.0,11.0,77,0.00,,,0.00,,2013-03-02 14:32:00,
2013-03-02 08:42:00,14.0,8.0,30.27,NNE,15,4.0,11.0,77,0.00,,,0.00,,2013-03-02 14:42:00,
2013-03-02 08:52:00,14.0,8.0,30.27,NNW,341,6.0,10.0,77,0.00,,,0.00,,2013-03-02 14:52:00,
2013-03-02 09:02:00,15.0,9.0,30.27,NNW,340,5.0,11.0,76,0.00,,,0.00,,2013-03-02 15:02:00,
2013-03-02 09:11:00,15.0,9.0,30.27,NNW,340,5.0,11.0,76,0.00,,,0.00,,2013-03-02 15:11:00,
2013-03-02 09:21:00,16.0,10.0,30.27,WNW,298,4.0,9.0,76,0.00,,,0.00,,2013-03-02 15:21:00,
2013-03-02 09:32:00,16.0,9.0,30.27,NNW,340,4.0,8.0,75,0.00,,,0.00,,2013-03-02 15:32:00,
2013-03-02 09:42:00,16.0,9.0,30.27,NNW,340,4.0,8.0,75,0.00,,,0.00,,2013-03-02 15:42:00,
2013-03-02 09:52:00,17.0,10.0,30.27,NNW,334,4.0,8.0,74,0.00,,,0.00,,2013-03-02 15:52:00,
2013-03-02 10:01:00,18.0,11.0,30.27,NNW,328,6.0,10.0,74,0.00,,,0.00,,2013-03-02 16:01:00,
2013-03-02 10:11:00,18.0,11.0,30.27,NNW,328,6.0,10.0,74,0.00,,,0.00,,2013-03-02 16:11:00,
2013-03-02 10:21:00,18.0,11.0,30.27,NNE,22,4.0,9.0,73,0.00,,,0.00,,2013-03-02 16:21:00,
2013-03-02 10:31:00,20.0,12.0,30.27,NNE,13,5.0,7.0,72,0.00,,,0.00,,2013-03-02 16:31:00,
2013-03-02 10:42:00,20.0,12.0,30.27,NNE,13,5.0,7.0,72,0.00,,,0.00,,2013-03-02 16:42:00,
2013-03-02 10:52:00,20.0,12.0,30.27,NNW,343,3.0,9.0,72,0.00,,,0.00,,2013-03-02 16:52:00,
2013-03-02 11:01:00,21.0,13.0,30.26,NNW,342,6.0,9.0,72,0.00,,,0.00,,2013-03-02 17:01:00,
2013-03-02 11:11:00,21.0,13.0,30.26,NNW,342,6.0,9.0,72,0.00,,,0.00,,2013-03-02 17:11:00,
2013-03-02 11:21:00,21.0,13.0,30.26,NNE,13,4.0,9.0,71,0.00,,,0.00,,2013-03-02 17:21:00,
2013-03-02 11:32:00,22.0,14.0,30.26,North,5,4.0,10.0,71,0.00,,,0.00,,2013-03-02 17:32:00,
2013-03-02 11:42:00,22.0,14.0,30.26,North,5,4.0,10.0,71,0.00,,,0.00,,2013-03-02 17:42:00,
2013-03-02 11:52:00,23.0,14.0,30.25,NW,322,7.0,7.0,69,0.00,,,0.00,,2013-03-02 17:52:00,
2013-03-02 12:02:00,23.0,14.0,30.25,NNE,17,6.0,11.0,68,0.00,,,0.00,,2013-03-02 18:02:00,
2013-03-02 12:11:00,23.0,14.0,30.25,NNE,17,6.0,11.0,68,0.00,,,0.00,,2013-03-02 18:11:00,
2013-03-02 12:22:00,23.0,14.0,30.24,North,5,4.0,11.0,69,0.00,,,0.00,,2013-03-02 18:22:00,
2013-03-02 12:32:00,23.0,15.0,30.24,North,360,4.0,8.0,70,0.00,,,0.00,,2013-03-02 18:32:00,
2013-03-02 12:42:00,23.0,15.0,30.24,North,360,4.0,8.0,70,0.00,,,0.00,,2013-03-02 18:42:00,
2013-03-02 12:51:00,24.0,15.0,30.23,NNW,348,4.0,9.0,69,0.00,,,0.00,,2013-03-02 18:51:00,
2013-03-02 13:01:00,24.0,15.0,30.23,North,360,2.0,8.0,68,0.00,,,0.00,,2013-03-02 19:01:00,
2013-03-02 13:11:00,24.0,15.0,30.23,North,360,2.0,8.0,68,0.00,,,0.00,,2013-03-02 19:11:00,
2013-03-02 13:21:00,24.0,15.0,30.22,NNW,348,5.0,6.0,67,0.00,,,0.00,,2013-03-02 19:21:00,
2013-03-02 13:32:00,24.0,14.0,30.22,NE,45,4.0,7.0,65,0.00,,,0.00,,2013-03-02 19:32:00,
2013-03-02 13:42:00,24.0,14.0,30.22,NE,45,4.0,7.0,65,0.00,,,0.00,,2013-03-02 19:42:00,
2013-03-02 13:52:00,24.0,14.0,30.22,NE,45,2.0,8.0,66,0.00,,,0.00,,2013-03-02 19:52:00,
2013-03-02 14:01:00,24.0,15.0,30.22,NNE,19,5.0,6.0,67,0.00,,,0.00,,2013-03-02 20:01:00,
2013-03-02 14:11:00,24.0,15.0,30.22,NNE,19,5.0,6.0,67,0.00,,,0.00,,2013-03-02 20:11:00,
2013-03-02 14:21:00,25.0,14.0,30.21,WNW,286,2.0,7.0,63,0.00,,,0.00,,2013-03-02 20:21:00,
2013-03-02 14:32:00,26.0,14.0,30.21,NNW,348,4.0,7.0,61,0.00,,,0.00,,2013-03-02 20:32:00,
2013-03-02 14:42:00,26.0,14.0,30.21,NNW,348,4.0,7.0,61,0.00,,,0.00,,2013-03-02 20:42:00,
2013-03-02 14:52:00,26.0,15.0,30.21,East,85,3.0,7.0,63,0.00,,,0.00,,2013-03-02 20:52:00,
2013-03-02 15:02:00,26.0,15.0,30.21,ENE,60,3.0,6.0,63,0.00,,,0.00,,2013-03-02 21:02:00,
2013-03-02 15:11:00,26.0,15.0,30.21,ENE,60,3.0,6.0,63,0.00,,,0.00,,2013-03-02 21:11:00,
2013-03-02 15:22:00,26.0,16.0,30.20,East,97,1.0,5.0,64,0.00,,,0.00,,2013-03-02 21:22:00,
2013-03-02 15:32:00,26.0,16.0,30.20,NE,41,4.0,8.0,66,0.00,,,0.00,,2013-03-02 21:32:00,
2013-03-02 15:42:00,26.0,16.0,30.20,NE,41,4.0,8.0,66,0.00,,,0.00,,2013-03-02 21:42:00,
2013-03-02 15:52:00,25.0,15.0,30.20,East,80,3.0,5.0,66,0.00,,,0.00,,2013-03-02 21:52:00,
2013-03-02 16:02:00,25.0,16.0,30.20,SE,131,2.0,4.0,67,0.00,,,0.00,,2013-03-02 22:02:00,
2013-03-02 16:11:00,25.0,16.0,30.20,SE,131,2.0,4.0,67,0.00,,,0.00,,2013-03-02 22:11:00,
2013-03-02 16:21:00,25.0,16.0,30.20,SE,135,2.0,4.0,67,0.00,,,0.00,,2013-03-02 22:21:00,
2013-03-02 16:32:00,24.0,15.0,30.20,SE,125,2.0,6.0,67,0.00,,,0.00,,2013-03-02 22:32:00,
2013-03-02 16:42:00,24.0,15.0,30.20,SE,125,2.0,6.0,67,0.00,,,0.00,,2013-03-02 22:42:00,
2013-03-02 16:51:00,24.0,15.0,30.20,SE,134,0.0,5.0,67,0.00,,,0.00,,2013-03-02 22:51:00,
2013-03-02 17:01:00,25.0,16.0,30.20,SE,134,0.0,3.0,67,0.00,,,0.00,,2013-03-02 23:01:00,
2013-03-02 17:11:00,24.0,15.0,30.21,SE,134,0.0,3.0,67,0.00,,,0.00,,2013-03-02 23:11:00,
2013-03-02 17:21:00,24.0,15.0,30.21,SE,134,0.0,3.0,67,0.00,,,0.00,,2013-03-02 23:21:00,
2013-03-02 17:32:00,24.0,15.0,30.21,SE,134,0.0,3.0,67,0.00,,,0.00,,2013-03-02 23:32:00,
2013-03-02 17:42:00,24.0,15.0,30.21,SE,134,0.0,3.0,67,0.00,,,0.00,,2013-03-02 23:42:00,
2013-03-02 17:52:00,23.0,14.0,30.21,SE,134,0.0,3.0,68,0.00,,,0.00,,2013-03-02 23:52:00,
2013-03-02 18:02:00,22.0,13.0,30.21,SE,134,0.0,1.0,69,0.00,,,0.00,,2013-03-03 00:02:00,
2013-03-02 18:11:00,22.0,13.0,30.21,SE,134,0.0,1.0,69,0.00,,,0.00,,2013-03-03 00:11:00,
2013-03-02 18:22:00,22.0,14.0,30.22,SE,134,0.0,0.0,70,0.00,,,0.00,,2013-03-03 00:22:00,
2013-03-02 18:32:00,21.0,13.0,30.22,SE,134,0.0,0.0,72,0.00,,,0.00,,2013-03-03 00:32:00,
2013-03-02 18:42:00,21.0,13.0,30.22,SE,134,0.0,0.0,72,0.00,,,0.00,,2013-03-03 00:42:00,
2013-03-02 18:52:00,20.0,12.0,30.22,SE,134,0.0,0.0,71,0.00,,,0.00,,2013-03-03 00:52:00,
2013-03-02 19:01:00,19.0,12.0,30.21,SE,134,0.0,0.0,74,0.00,,,0.00,,2013-03-03 01:01:00,
2013-03-02 19:11:00,19.0,12.0,30.21,SE,134,0.0,0.0,74,0.00,,,0.00,,2013-03-03 01:11:00,
2013-03-02 19:21:00,18.0,11.0,30.21,SE,134,0.0,0.0,73,0.00,,,0.00,,2013-03-03 01:21:00,
2013-03-02 19:31:00,16.0,9.0,30.21,SE,134,0.0,1.0,75,0.00,,,0.00,,2013-03-03 01:31:00,
2013-03-02 19:42:00,16.0,9.0,30.21,SE,134,0.0,1.0,75,0.00,,,0.00,,2013-03-03 01:42:00,
2013-03-02 19:52:00,15.0,9.0,30.21,SE,134,0.0,1.0,77,0.00,,,0.00,,2013-03-03 01:52:00,
2013-03-02 20:01:00,15.0,9.0,30.21,SE,134,0.0,0.0,77,0.00,,,0.00,,2013-03-03 02:01:00,
2013-03-02 20:11:00,15.0,9.0,30.21,SE,134,0.0,0.0,77,0.00,,,0.00,,2013-03-03 02:11:00,
2013-03-02 20:21:00,14.0,8.0,30.21,SE,134,0.0,0.0,77,0.00,,,0.00,,2013-03-03 02:21:00,
2013-03-02 20:31:00,14.0,8.0,30.21,SE,134,0.0,0.0,78,0.00,,,0.00,,2013-03-03 02:31:00,
2013-03-02 20:41:00,14.0,8.0,30.21,SE,134,0.0,0.0,78,0.00,,,0.00,,2013-03-03 02:41:00,
2013-03-02 20:52:00,13.0,8.0,30.21,SE,134,0.0,0.0,79,0.00,,,0.00,,2013-03-03 02:52:00,
2013-03-02 21:01:00,13.0,7.0,30.21,SE,134,0.0,0.0,78,0.00,,,0.00,,2013-03-03 03:01:00,
2013-03-02 21:11:00,13.0,7.0,30.21,SE,134,0.0,0.0,78,0.00,,,0.00,,2013-03-03 03:11:00,
2013-03-02 21:21:00,12.0,6.0,30.21,SE,134,0.0,0.0,77,0.00,,,0.00,,2013-03-03 03:21:00,
2013-03-02 21:31:00,11.0,6.0,30.21,SE,134,0.0,0.0,79,0.00,,,0.00,,2013-03-03 03:31:00,
2013-03-02 21:41:00,11.0,6.0,30.21,SE,134,0.0,0.0,79,0.00,,,0.00,,2013-03-03 03:41:00,
2013-03-02 21:51:00,11.0,7.0,30.20,SE,134,0.0,0.0,82,0.00,,,0.00,,2013-03-03 03:51:00,
2013-03-02 22:01:00,11.0,7.0,30.20,SE,134,0.0,0.0,82,0.00,,,0.00,,2013-03-03 04:01:00,
2013-03-02 22:11:00,11.0,7.0,30.20,SE,134,0.0,0.0,82,0.00,,,0.00,,2013-03-03 04:11:00,
2013-03-02 22:21:00,11.0,6.0,30.19,SE,134,0.0,0.0,80,0.00,,,0.00,,2013-03-03 04:21:00,
2013-03-02 22:31:00,10.0,5.0,30.19,SE,134,0.0,0.0,79,0.00,,,0.00,,2013-03-03 04:31:00,
2013-03-02 22:42:00,10.0,5.0,30.19,SE,134,0.0,0.0,79,0.00,,,0.00,,2013-03-03 04:42:00,
2013-03-02 22:51:00,10.0,5.0,30.19,SE,134,0.0,0.0,80,0.00,,,0.00,,2013-03-03 04:51:00,
2013-03-02 23:02:00,10.0,5.0,30.18,SE,134,0.0,0.0,81,0.00,,,0.00,,2013-03-03 05:02:00,
2013-03-02 23:11:00,10.0,5.0,30.18,SE,134,0.0,0.0,81,0.00,,,0.00,,2013-03-03 05:11:00,
2013-03-02 23:22:00,10.0,5.0,30.18,SE,134,0.0,0.0,79,0.00,,,0.00,,2013-03-03 05:22:00,
2013-03-02 23:32:00,10.0,5.0,30.18,SE,134,0.0,0.0,80,0.00,,,0.00,,2013-03-03 05:32:00,
2013-03-02 23:42:00,10.0,5.0,30.18,SE,134,0.0,0.0,80,0.00,,,0.00,,2013-03-03 05:42:00,
2013-03-02 23:52:00,9.0,4.0,30.18,SE,134,0.0,1.0,80,0.00,,,0.00,,2013-03-03 05:52:00,